Simultaneous Nadir Overpasses (SNOs) Predictions

Prediction of SNOs between TERRA and METOP-C Satellite Orbit:

Table of predicted SNOs for the next 14.0 days since TLE Epoch: 10/12/2019
Index Date (TERRA) Time (TERRA) Lat,Lon (TERRA) SZA (TERRA ) Date (METOP-C) Time (METOP-C) Lat,Lon (METOP-C) SZA (METOP-C ) Distance(km) Time Diff (sec)
1 10/13/2019 16:02:54 -81.31, 166.42 87.76 10/13/2019 16:02:01 -81.31, 166.51 87.78 1.55 53
2 10/13/2019 16:52:20 81.32, -25.81 92.28 10/13/2019 16:52:40 81.32, -25.84 92.28 0.75 20
3 10/16/2019 11:37:09 -81.31,-127.24 86.72 10/16/2019 11:36:23 -81.31,-127.15 86.73 1.62 46
4 10/16/2019 12:26:35 81.31, 40.50 93.31 10/16/2019 12:27:02 81.31, 40.50 93.33 0.20 27
5 10/19/2019 07:11:23 -81.30, -60.94 85.71 10/19/2019 07:10:44 -81.31, -60.81 85.70 2.45 39
6 10/19/2019 08:00:48 81.32, 107.15 94.38 10/19/2019 08:01:22 81.32, 107.24 94.40 1.55 34
7 10/22/2019 02:45:37 -81.31, 5.70 84.66 10/22/2019 02:45:06 -81.31, 5.53 84.70 2.92 31
8 10/22/2019 03:35:03 81.31, 173.38 95.36 10/22/2019 03:35:45 81.31, 173.19 95.36 3.22 42
9 10/24/2019 22:19:51 -81.32, 72.30 83.65 10/24/2019 22:19:27 -81.31, 72.25 83.67 1.19 24




NCC Satellite Simultaneous Nadir Overpasses (SNOs) Prediction Service
